Simultaneous Nadir Overpasses (SNOs) Predictions

Prediction of SNOs between GOES-16 and NPP Satellite Orbit:

Table of predicted SNOs for the next 14.0 days since TLE Epoch: 2/2/2017
Index Date Time (GOES-16) GOES-16 Lat,Lon NPP Lat,Lon Distance(km) Time Diff (sec)
1 02/04/2017 07:35:56 0.02, -89.48 0.68, -92.30 322.12 80
2 02/05/2017 07:14:31 0.03, -89.48 -0.37, -87.77 195.27 80
3 02/06/2017 19:36:27 -0.03, -89.50 -0.83, -93.07 406.79 80
4 02/07/2017 19:20:21 -0.03, -89.51 0.17, -88.53 110.95 80
5 02/09/2017 07:42:08 0.04, -89.52 0.98, -93.81 487.89 80
6 02/10/2017 07:20:43 0.04, -89.53 -0.02, -89.27 29.92 80
7 02/12/2017 19:23:54 -0.04, -89.57 -0.12, -90.04 53.16 80
8 02/13/2017 19:07:48 -0.04, -89.59 0.88, -85.51 465.46 80
9 02/15/2017 07:29:35 0.05, -89.62 0.32, -90.77 131.92 80
10 02/16/2017 07:08:10 0.04, -89.63 -0.74, -86.25 386.72 80




NCC Satellite Simultaneous Nadir Overpasses (SNOs) Prediction Service
